Location: Stara Lesna
(49.1528°N, 20.2911°E)
Time: 03:20:00
(UTC+02:00)

Lacrosse 5 rocket - Pass Details

Date: 13 July 2020
Orbit: 465 x 632 km, 57.0° (Epoch: 11 August)

Event Time Altitude Azimuth Distance (km) Brightness Sun altitude
Rises 00:16:17 0° 299° (WNW) 2,705 5.4 -18.8°
Reaches altitude 10° 00:18:48 10° 286° (WNW) 1,776 4.2 -18.8°
Enters shadow 00:21:44 25° 241° (WSW) 1,069 2.5 -18.9°
